Change the Weather History Date:

Saturday, January 5, 2013

  Actual Average Record
Temperature  
Mean Temperature 46 °F -  
Max Temperature 48 °F 43 °F 48 °F (2007)
Min Temperature 44 °F 39 °F 37 °F (2003)
Degree Days  
Heating Degree Days 19    
Moisture  
Dew Point 46 °F    
Average Humidity 99    
Maximum Humidity 100    
Minimum Humidity 93    
Precipitation  
Precipitation 0.00 in - - ()
Sea Level Pressure  
Sea Level Pressure 30.22 in    
Wind  
Wind Speed 22 mph ()    
Max Wind Speed 32 mph    
Max Gust Speed -    
Visibility 4.3 miles    
Events Rain    
Averages and records for this station are not official NWS values.
T = Trace of Precipitation, MM = Missing Value Source: Averaged Metar Reports

Daily Weather History Graph

Daily Weather History Graph

Search for Another Location

Airport or City:

Trip Planner

Search our weather history database for the weather conditions in past years. The results will help you decide how hot, cold, wet, or windy it might be!

Date:

Astronomy

Jan. 05, 2013 Rise Set
Actual Time 10:00 AM CET 3:54 PM CET
Civil Twilight 9:01 AM CET 4:53 PM CET
Nautical Twilight 8:03 AM CET 5:51 PM CET
Astronomical Twilight 7:11 AM CET 6:44 PM CET
Moon 1:38 AM CET (1/5) 11:39 AM CET (1/5)
Length of Visible Light 7h 51m
Length of Day
5h 53m
Waning Gibbous, 47% of the Moon is Illuminated
Jan 5
Waning Gibbous
Jan 11
New
Jan 19
First Quarter
Jan 27
Full
Feb 3
Last Quarter

Hourly Weather History & Observations

Time (CET) Temp. Windchill Dew Point Humidity Pressure Visibility Wind Dir Wind Speed Gust Speed Precip Events Conditions
12:50 AM 48.2 °F - 48.2 °F 100% 30.24 in 0.6 mi West 26.5 mph - N/A   Overcast
1:50 AM 46.4 °F 37.9 °F 46.4 °F 100% 30.24 in 2.2 mi West 25.3 mph - N/A   Mostly Cloudy
2:50 AM 46.4 °F 37.7 °F 46.4 °F 100% 30.27 in 6.2 mi West 26.5 mph - N/A   Mostly Cloudy
3:50 AM 46.4 °F 38.1 °F 46.4 °F 100% 30.27 in 6.2 mi West 24.2 mph - N/A   Mostly Cloudy
4:50 AM 46.4 °F 39.0 °F 46.4 °F 100% 30.27 in 3.1 mi WSW 19.6 mph - N/A Rain Light Rain
5:50 AM 46.4 °F 38.5 °F 46.4 °F 100% 30.27 in 1.2 mi WSW 21.9 mph - N/A Rain Light Rain
6:50 AM 46.4 °F 38.7 °F 46.4 °F 100% 30.27 in 1.4 mi WSW 20.7 mph - N/A   Mostly Cloudy
7:20 AM 46.4 °F 38.3 °F 46.4 °F 100% 30.27 in 3.7 mi WSW 23.0 mph - N/A   Mostly Cloudy
7:50 AM 46.4 °F 38.3 °F 46.4 °F 100% 30.27 in 3.7 mi WSW 23.0 mph - N/A   Mostly Cloudy
8:20 AM 46.4 °F 38.1 °F 46.4 °F 100% 30.27 in 3.7 mi WSW 24.2 mph - N/A   Mostly Cloudy
8:50 AM 46.4 °F 38.1 °F 46.4 °F 100% 30.27 in 2.5 mi WSW 24.2 mph - N/A   Mostly Cloudy
8:58 AM 46.4 °F 38.3 °F 46.4 °F 100% 30.27 in 5.0 mi WSW 23.0 mph - N/A   Light Drizzle
9:20 AM 46.4 °F 38.5 °F 46.4 °F 100% 30.27 in 5.6 mi WSW 21.9 mph - N/A Rain Light Rain Showers
9:50 AM 46.4 °F 38.7 °F 46.4 °F 100% 30.27 in 3.1 mi WSW 20.7 mph - N/A Rain Mostly Cloudy
10:20 AM 46.4 °F 38.7 °F 46.4 °F 100% 30.27 in 6.2 mi WSW 20.7 mph - N/A Rain Light Rain
10:50 AM 46.4 °F 38.3 °F 46.4 °F 100% 30.27 in 5.6 mi WSW 23.0 mph - N/A Rain Light Rain
11:50 AM 46.4 °F 38.3 °F 46.4 °F 100% 30.27 in 2.5 mi WSW 23.0 mph - N/A   Mostly Cloudy
12:20 PM 46.4 °F 38.5 °F 46.4 °F 100% 30.27 in 3.7 mi WSW 21.9 mph - N/A   Mostly Cloudy
12:50 PM 46.4 °F 38.3 °F 46.4 °F 100% 30.27 in 3.7 mi SW 23.0 mph - N/A   Mostly Cloudy
1:20 PM 46.4 °F 38.3 °F 46.4 °F 100% 30.27 in 5.6 mi SW 23.0 mph - N/A   Mostly Cloudy
1:50 PM 46.4 °F 37.9 °F 46.4 °F 100% 30.24 in 6.2 mi SW 25.3 mph - N/A   Mostly Cloudy
2:20 PM 46.4 °F 37.4 °F 46.4 °F 100% 30.24 in 6.2 mi SW 28.8 mph - N/A   Mostly Cloudy
2:50 PM 46.4 °F 37.4 °F 46.4 °F 100% 30.24 in 6.2 mi SSW 28.8 mph - N/A   Mostly Cloudy
3:50 PM 46.4 °F 38.7 °F 44.6 °F 93% 30.24 in - SSW 20.7 mph - N/A Rain Light Rain Showers
4:20 PM 46.4 °F 38.3 °F 44.6 °F 93% 30.21 in 6.2 mi South 23.0 mph - N/A   Mostly Cloudy
4:50 PM 46.4 °F 38.1 °F 44.6 °F 93% 30.21 in 5.6 mi SSW 24.2 mph - N/A   Mostly Cloudy
5:50 PM 44.6 °F 35.5 °F 44.6 °F 100% 30.18 in 6.2 mi South 25.3 mph - N/A   Mostly Cloudy
6:20 PM 44.6 °F 35.7 °F 44.6 °F 100% 30.15 in 6.2 mi South 24.2 mph - N/A   Mostly Cloudy
6:50 PM 44.6 °F 35.7 °F 44.6 °F 100% 30.15 in 5.6 mi South 24.2 mph - N/A   Mostly Cloudy
7:50 PM 44.6 °F 34.6 °F 44.6 °F 100% 30.12 in 4.3 mi South 31.1 mph - N/A Rain Light Rain
8:50 PM 44.6 °F 34.4 °F 44.6 °F 100% 30.09 in 3.1 mi South 32.2 mph - N/A Rain Light Rain
9:50 PM 44.6 °F 35.7 °F 44.6 °F 100% 30.09 in 3.1 mi South 24.2 mph - N/A Rain Light Rain
10:50 PM 44.6 °F 36.4 °F 44.6 °F 100% 30.06 in 2.5 mi South 20.7 mph - N/A Rain Light Rain
11:50 PM 44.6 °F 38.8 °F 44.6 °F 100% 30.04 in 4.3 mi South 11.5 mph - N/A   Mostly Cloudy